Total_Precipitation_Accumulation
0.00 0.03 0.15 0.11 0.07 0.06 0.04 0.05 0.08 0.08 0.10 0.15 0.14 0.10 0.09 0.11 0.09 0.07 0.06 0.06 0.07 0.07 0.08 0.11 0.12 0.16 0.26 0.32 0.23 0.04 0.01 0.01 0.01 0.01 0.01 0.03 0.05 0.05 0.05 0.05 0.04 0.02 0.04
0.00 0.02 0.10 0.13 0.08 0.08 0.08 0.09 0.11 0.07 0.15 0.15 0.16 0.15 0.16 0.15 0.11 0.07 0.07 0.05 0.04 0.07 0.14 0.23 0.20 0.13 0.05 0.02 0.02 0.01 0.00 0.00 0.00 0.00 0.00 0.01 0.04 0.07 0.04 0.04 0.07 0.07 0.10
0.00 0.02 0.05 0.14 0.09 0.09 0.08 0.08 0.06 0.09 0.13 0.15 0.13 0.14 0.15 0.11 0.08 0.08 0.05 0.04 0.08 0.14 0.22 0.17 0.06 0.01 0.00 0.00 0.00 0.00 0.00 0.00 0.00 0.00 0.00 0.00 0.01 0.07 0.06 0.06 0.07 0.05 0.08
0.01 0.01 0.03 0.13 0.08 0.06 0.04 0.05 0.06 0.11 0.12 0.09 0.07 0.10 0.15 0.14 0.10 0.06 0.06 0.07 0.09 0.07 0.04 0.02 0.00 0.00 0.00 0.00 0.00 0.00 0.00 0.00 0.00 0.00 0.00 0.00 0.01 0.05 0.06 0.07 0.10 0.11 0.08
0.03 0.03 0.04 0.15 0.12 0.08 0.03 0.04 0.09 0.08 0.08 0.07 0.08 0.16 0.18 0.20 0.09 0.06 0.06 0.03 0.01 0.01 0.01 0.00 0.00 0.00 0.00 0.00 0.00 0.00 0.01 0.01 0.00 0.00 0.00 0.01 0.03 0.09 0.08 0.09 0.11 0.15 0.19
0.04 0.05 0.06 0.19 0.14 0.07 0.04 0.08 0.09 0.06 0.06 0.06 0.10 0.18 0.25 0.20 0.10 0.08 0.02 0.00 0.00 0.01 0.00 0.00 0.00 0.00 0.00 0.00 0.00 0.00 0.01 0.01 0.00 0.00 0.00 0.01 0.03 0.11 0.07 0.08 0.11 0.17 0.20
0.04 0.09 0.08 0.25 0.15 0.05 0.05 0.08 0.06 0.06 0.07 0.06 0.06 0.16 0.24 0.13 0.10 0.11 0.03 0.00 0.00 0.00 0.00 0.00 0.00 0.00 0.00 0.00 0.00 0.00 0.00 0.00 0.00 0.00 0.00 0.00 0.01 0.05 0.03 0.03 0.06 0.08 0.09
0.06 0.11 0.09 0.30 0.22 0.06 0.06 0.06 0.04 0.05 0.08 0.06 0.03 0.12 0.20 0.09 0.07 0.10 0.04 0.00 0.00 0.00 0.00 0.00 0.01 0.01 0.01 0.01 0.00 0.00 0.00 0.00 0.00 0.00 0.00 0.00 0.00 0.00 0.01 0.02 0.04 0.05 0.05
0.37 0.17 0.09 0.20 0.20 0.05 0.05 0.04 0.03 0.05 0.07 0.06 0.04 0.06 0.06 0.03 0.04 0.08 0.04 0.00 0.00 0.01 0.00 0.03 0.04 0.01 0.01 0.00 0.00 0.00 0.00 0.00 0.00 0.00 0.00 0.00 0.00 0.01 0.03 0.06 0.08 0.08 0.08
0.72 0.50 0.19 0.19 0.10 0.04 0.05 0.05 0.02 0.03 0.04 0.04 0.03 0.02 0.00 0.00 0.01 0.01 0.01 0.00 0.01 0.01 0.03 0.04 0.01 0.01 0.01 0.00 0.00 0.00 0.00 0.00 0.00 0.00 0.00 0.00 0.00 0.07 0.14 0.14 0.12 0.10 0.11
1.27 0.72 0.55 0.22 0.07 0.03 0.06 0.04 0.02 0.02 0.02 0.02 0.00 0.00 0.00 0.00 0.00 0.00 0.00 0.00 0.00 0.03 0.03 0.00 0.01 0.02 0.01 0.00 0.00 0.00 0.00 0.00 0.00 0.00 0.00 0.01 0.07 0.15 0.10 0.06 0.05 0.07 0.07
1.42 0.86 0.67 0.45 0.23 0.03 0.03 0.04 0.03 0.02 0.01 0.01 0.00 0.00 0.00 0.00 0.00 0.00 0.00 0.00 0.00 0.03 0.00 0.00 0.01 0.01 0.00 0.00 0.00 0.00 0.00 0.00 0.00 0.00 0.00 0.02 0.06 0.08 0.05 0.03 0.05 0.04 0.04
1.53 1.25 0.65 0.50 0.35 0.08 0.02 0.03 0.04 0.02 0.01 0.01 0.00 0.00 0.00 0.00 0.00 0.00 0.00 0.00 0.00 0.00 0.00 0.00 0.00 0.00 0.00 0.00 0.00 0.00 0.00 0.00 0.00 0.00 0.00 0.04 0.04 0.05 0.01 0.01 0.01 0.01 0.01
0.61 1.44 1.50 1.02 0.45 0.13 0.04 0.02 0.01 0.02 0.01 0.01 0.00 0.00 0.00 0.00 0.00 0.00 0.00 0.00 0.00 0.00 0.00 0.00 0.00 0.00 0.00 0.00 0.00 0.00 0.00 0.00 0.00 0.00 0.00 0.00 0.00 0.01 0.00 0.00 0.00 0.00 0.00
0.36 0.66 0.81 1.00 0.95 0.34 0.12 0.04 0.01 0.01 0.01 0.00 0.00 0.00 0.00 0.00 0.00 0.00 0.00 0.00 0.00 0.00 0.00 0.00 0.00 0.00 0.00 0.00 0.00 0.00 0.00 0.00 0.00 0.00 0.00 0.00 0.00 0.00 0.00 0.01 0.01 0.03 0.06
0.31 0.35 0.41 0.43 0.57 0.52 0.42 0.14 0.05 0.01 0.01 0.00 0.00 0.00 0.00 0.00 0.00 0.00 0.00 0.00 0.00 0.00 0.00 0.00 0.00 0.00 0.00 0.00 0.00 0.00 0.00 0.00 0.00 0.00 0.00 0.00 0.00 0.00 0.00 0.00 0.00 0.03 0.14
0.18 0.29 0.24 0.32 0.31 0.26 0.62 0.44 0.21 0.07 0.03 0.02 0.00 0.00 0.00 0.00 0.00 0.00 0.00 0.00 0.00 0.00 0.00 0.00 0.00 0.00 0.00 0.00 0.00 0.00 0.00 0.00 0.00 0.00 0.00 0.00 0.00 0.00 0.00 0.00 0.00 0.00 0.01
0.15 0.12 0.20 0.22 0.24 0.14 0.20 0.47 0.38 0.32 0.19 0.05 0.02 0.01 0.00 0.00 0.00 0.00 0.00 0.00 0.00 0.00 0.00 0.00 0.00 0.00 0.00 0.00 0.00 0.00 0.00 0.00 0.00 0.00 0.00 0.00 0.00 0.00 0.00 0.00 0.00 0.00 0.00
0.20 0.27 0.27 0.30 0.32 0.25 0.22 0.35 0.40 0.35 0.23 0.18 0.10 0.03 0.01 0.00 0.00 0.00 0.00 0.00 0.00 0.00 0.00 0.00 0.00 0.00 0.00 0.00 0.00 0.00 0.00 0.00 0.00 0.00 0.00 0.00 0.00 0.00 0.00 0.00 0.00 0.00 0.01
0.17 0.29 0.39 0.38 0.37 0.59 0.59 0.66 0.67 0.37 0.19 0.33 0.31 0.15 0.14 0.06 0.03 0.02 0.01 0.00 0.00 0.00 0.00 0.00 0.00 0.00 0.00 0.01 0.01 0.01 0.00 0.00 0.00 0.00 0.00 0.01 0.02 0.01 0.00 0.00 0.00 0.00 0.00
0.53 0.48 0.57 0.54 0.43 0.64 0.72 0.59 0.42 0.30 0.22 0.15 0.23 0.39 0.45 0.26 0.20 0.12 0.06 0.03 0.01 0.00 0.01 0.01 0.01 0.01 0.01 0.05 0.06 0.01 0.00 0.00 0.00 0.00 0.00 0.02 0.01 0.01 0.00 0.00 0.00 0.00 0.00
0.70 0.87 0.67 0.59 0.68 0.57 0.63 0.53 0.46 0.41 0.48 0.28 0.46 0.38 0.41 0.48 0.49 0.44 0.36 0.24 0.10 0.05 0.03 0.03 0.06 0.08 0.08 0.14 0.21 0.09 0.02 0.00 0.00 0.00 0.00 0.00 0.00 0.00 0.00 0.00 0.00 0.00 0.00
0.72 0.76 0.84 0.73 0.71 0.60 0.79 1.06 1.04 0.99 0.67 0.48 0.35 0.33 0.39 0.48 0.62 0.64 0.77 0.86 0.74 0.52 0.36 0.29 0.21 0.24 0.28 0.21 0.19 0.21 0.07 0.02 0.00 0.00 0.00 0.00 0.00 0.00 0.00 0.01 0.01 0.01 0.01
0.40 0.39 0.48 0.75 0.80 0.98 0.94 1.12 1.16 1.34 1.47 1.10 1.18 1.13 0.96 0.91 0.91 1.00 1.04 1.17 1.15 0.85 0.70 0.63 0.65 0.60 0.51 0.29 0.20 0.14 0.12 0.08 0.08 0.04 0.01 0.01 0.01 0.00 0.00 0.01 0.01 0.01 0.01
0.11 0.11 0.14 0.35 0.61 0.68 0.73 1.15 1.43 1.16 1.16 1.17 1.10 1.08 1.14 1.12 1.00 1.04 1.20 1.34 1.41 1.33 1.08 0.81 0.58 0.45 0.36 0.32 0.27 0.26 0.17 0.13 0.09 0.09 0.05 0.05 0.05 0.04 0.02 0.01 0.00 0.00 0.00
0.01 0.01 0.03 0.08 0.22 0.49 0.78 0.96 1.13 1.19 0.97 0.84 0.90 0.81 0.85 0.86 0.85 0.84 0.92 1.03 1.02 0.90 0.88 0.81 0.74 0.50 0.36 0.31 0.26 0.25 0.22 0.21 0.14 0.10 0.10 0.08 0.08 0.05 0.02 0.01 0.00 0.00 0.00